Location: Asis
(14.1331°N, 120.9056°E)
Time: 13:32:33
(UTC+00:00)

ATLAS 2AS CENTAUR RB - Pass Details

Date: 15 January 2026
Orbit: 301 x 22241 km, 12.7° (Epoch: 14 February)

Event Time Altitude Azimuth Distance (km) Brightness Sun altitude
Rises 06:19:42 0° 253° (WSW) 22,749 10.1 41.8°
Reaches altitude 10° 08:24:16 10° 251° (WSW) 26,321 12.1 17.4°
Maximum altitude 10:51:18 68° 177° (S) 2,734 4.8 -15.4°
Enters shadow 10:57:43 19° 98° (E) 2,735 4.3 -16.9°
